DW7441 N Andrews Bay WA US current weather conditions

sailwx.info

Wind from 178

Air temperature 21.1° C
Dewpoint 12.5° C

Last reported at 2019-Jun-16 23:04 UTC.
Time now 2019-Jun-17 04:42 UTC

Location: N 48°33' W 123°10'.
View on Google Maps.

See reports from other nearby stations

  
Tides and Currents Weather Stations Pressure Air Temp Water Temp Dewpoint Dewpoint Depression Visibility Wind Speed Wind Dir Waves Ship Positions
date/time (UTC)wind fromknots sea level pressurealtimeterstation pressurevisibilityair tempwater tempwave heightnotes
2019-Jun-16 23:04 178 21.1
2019-Jun-16 22:59 178 0 gusting 2 21.1
2019-Jun-16 22:54 178 20.0
2019-Jun-16 22:49 178 18.3
2019-Jun-16 22:44 178 0 gusting 6 16.7
2019-Jun-16 22:39 173 4 gusting 9 16.1
2019-Jun-16 22:34 172 7 gusting 10 15.6
2019-Jun-16 22:29 159 7 gusting 10 16.1
2019-Jun-16 22:24 162 7 gusting 11 16.1
2019-Jun-16 22:19 173 6 gusting 11 16.1
2019-Jun-16 22:14 157 5 gusting 9 16.1
2019-Jun-16 22:09 190 5 gusting 9 15.6
2019-Jun-16 22:04 176 6 gusting 11 15.6
2019-Jun-16 21:59 170 7 gusting 11 15.6
2019-Jun-16 21:54 160 6 gusting 10 15.6
2019-Jun-16 21:49 166 7 gusting 10 16.1
2019-Jun-16 21:44 173 5 gusting 13 16.1
2019-Jun-16 21:39 163 7 gusting 14 16.1
2019-Jun-16 21:34 162 12 gusting 14 16.1
2019-Jun-16 21:29 170 10 gusting 14 16.1
2019-Jun-16 21:24 147 8 gusting 15 16.1
2019-Jun-16 21:19 150 10 gusting 15 16.1
2019-Jun-16 21:14 155 11 gusting 13 16.7
2019-Jun-16 21:09 160 10 gusting 13 16.7
2019-Jun-16 21:04 170 9 gusting 12 16.7
2019-Jun-16 20:59 159 8 gusting 11 17.2
2019-Jun-16 20:54 155 8 gusting 11 17.2
2019-Jun-16 20:49 163 7 gusting 10 17.2
2019-Jun-16 20:44 167 7 gusting 10 17.2
2019-Jun-16 20:39 162 6 gusting 10 17.2
2019-Jun-16 20:34 158 7 gusting 10 17.2
2019-Jun-16 20:29 165 8 gusting 10 17.2
2019-Jun-16 20:24 153 7 gusting 9 17.2
2019-Jun-16 20:19 165 6 gusting 9 17.2
2019-Jun-16 20:14 159 7 gusting 9 17.2
2019-Jun-16 20:09 152 7 gusting 9 17.2
2019-Jun-16 20:04 155 7 gusting 9 17.8
2019-Jun-16 19:59 160 5 gusting 7 17.8
2019-Jun-16 19:54 165 6 gusting 7 18.3
2019-Jun-16 19:49 157 3 gusting 6 18.3
2019-Jun-16 19:44 169 5 gusting 7 17.8
2019-Jun-16 19:39 149 5 gusting 7 17.8
2019-Jun-16 19:34 173 3 gusting 6 17.8
2019-Jun-16 19:29 169 3 gusting 6 17.2
2019-Jun-16 19:24 180 2 gusting 8 16.7
2019-Jun-16 19:19 175 6 gusting 9 16.7
2019-Jun-16 19:14 163 7 gusting 9 16.7
2019-Jun-16 19:09 180 5 gusting 6 17.2
2019-Jun-16 19:04 165 3 gusting 6 17.2
2019-Jun-16 18:59 174 2 gusting 6 17.8
2019-Jun-16 18:54 156 3 gusting 6 18.3
2019-Jun-16 18:49 176 0 gusting 2 18.3
2019-Jun-16 18:44 271 0 gusting 4 17.8
2019-Jun-16 18:39 171 0 gusting 5 17.2
2019-Jun-16 18:34 151 2 gusting 5 17.2
2019-Jun-16 18:29 166 1 gusting 3 16.7
2019-Jun-16 18:24 157 0 gusting 3 16.1
2019-Jun-16 18:19 157 1 gusting 3 16.1
2019-Jun-16 18:14 165 2 gusting 3 16.1
2019-Jun-16 18:09 154 1 gusting 3 16.7
2019-Jun-16 18:04 154 0 gusting 2 16.7
2019-Jun-16 17:59 153 0 gusting 2 16.1
2019-Jun-16 17:54 153 0 gusting 2 15.6
2019-Jun-16 17:49 155 1 gusting 2 16.1
2019-Jun-16 17:44 161 0 gusting 3 16.1
2019-Jun-16 17:39 168 1 gusting 2 16.1
2019-Jun-16 17:34 168 1 gusting 2 16.1
2019-Jun-16 17:29 169 0 gusting 1 16.1
2019-Jun-16 17:24 169 0 gusting 2 15.6
2019-Jun-16 17:19 167 1 gusting 2 15.6
2019-Jun-16 17:14 169 1 gusting 2 15.0
2019-Jun-16 17:09 164 0 gusting 1 14.4
2019-Jun-16 17:04 164 14.4
2019-Jun-16 16:59 164 14.4
2019-Jun-16 16:54 174 14.4
2019-Jun-16 16:49 174 14.4
2019-Jun-16 16:44 174 0 gusting 2 14.4
2019-Jun-16 16:39 174 0 gusting 3 14.4
2019-Jun-16 16:34 172 1 gusting 3 14.4
2019-Jun-16 16:29 167 2 gusting 4 14.4
2019-Jun-16 16:24 163 0 gusting 4 14.4
2019-Jun-16 16:19 163 14.4
2019-Jun-16 16:14 163 1 gusting 2 14.4
2019-Jun-16 16:09 174 1 gusting 2 14.4
2019-Jun-16 16:04 175 1 gusting 1 14.4
2019-Jun-16 15:59 175 0 gusting 1 14.4
2019-Jun-16 15:54 175 13.9
2019-Jun-16 15:49 175 0 gusting 1 13.3
2019-Jun-16 15:44 175 13.3
2019-Jun-16 15:39 175 13.3
2019-Jun-16 15:34 175 13.3
2019-Jun-16 15:29 175 12.8
2019-Jun-16 15:24 175 12.8
2019-Jun-16 15:19 175 12.8
2019-Jun-16 15:14 175 12.8
2019-Jun-16 15:09 175 12.8
2019-Jun-16 15:04 175 1 gusting 2 13.3
2019-Jun-16 14:59 182 0 gusting 2 13.3
2019-Jun-16 14:54 213 12.8
2019-Jun-16 14:49 261 12.8
2019-Jun-16 14:44 266 12.8
2019-Jun-16 14:39 266 12.8
2019-Jun-16 14:34 266 12.2
2019-Jun-16 14:29 266 11.7
2019-Jun-16 14:24 266 11.7
2019-Jun-16 14:19 266 11.1
2019-Jun-16 14:14 266 11.1
2019-Jun-16 14:09 266 10.6
2019-Jun-16 14:04 266 10.6
2019-Jun-16 13:59 266 10.6
2019-Jun-16 13:54 266 10.6
2019-Jun-16 13:49 266 10.0
2019-Jun-16 13:44 266 10.0
2019-Jun-16 13:39 266 10.0
2019-Jun-16 13:34 266 10.0
2019-Jun-16 13:29 266 10.0
2019-Jun-16 13:24 266 10.0
2019-Jun-16 13:19 266 10.0
2019-Jun-16 13:14 266 10.0
2019-Jun-16 13:09 266 10.0
2019-Jun-16 13:04 266 10.0
2019-Jun-16 12:59 266 10.0
2019-Jun-16 12:54 266 9.4
2019-Jun-16 12:49 146 9.4
2019-Jun-16 12:44 149 9.4
2019-Jun-16 12:39 149 9.4
2019-Jun-16 12:34 149 9.4
2019-Jun-16 12:29 149 9.4
2019-Jun-16 12:24 149 9.4
2019-Jun-16 12:19 149 9.4
2019-Jun-16 12:14 149 10.0
2019-Jun-16 12:09 149 10.0
2019-Jun-16 12:04 149 10.0
2019-Jun-16 11:59 149 10.0
2019-Jun-16 11:54 149 10.0
2019-Jun-16 11:49 149 10.0
2019-Jun-16 11:44 149 10.0
2019-Jun-16 11:39 149 10.0
2019-Jun-16 11:34 149 10.0
2019-Jun-16 11:29 149 10.0
2019-Jun-16 11:24 149 10.0
2019-Jun-16 11:19 149 10.0
2019-Jun-16 11:14 149 10.0
2019-Jun-16 11:09 149 10.6
2019-Jun-16 11:04 149 10.6
2019-Jun-16 10:59 149 10.6
2019-Jun-16 10:54 149 10.6
2019-Jun-16 10:49 149 10.6
2019-Jun-16 10:44 149 10.6
2019-Jun-16 10:39 149 10.6
2019-Jun-16 10:34 149 10.6
2019-Jun-16 10:29 149 10.6
2019-Jun-16 10:24 149 10.6
2019-Jun-16 10:19 149 10.6
2019-Jun-16 10:14 149 10.6
2019-Jun-16 10:09 149 10.6
2019-Jun-16 10:04 149 10.6
2019-Jun-16 09:59 149 10.6
2019-Jun-16 09:54 149 10.6
2019-Jun-16 09:49 149 10.6
2019-Jun-16 09:44 149 10.6
2019-Jun-16 09:39 149 10.6
2019-Jun-16 09:34 149 10.6
2019-Jun-16 09:29 149 11.1
2019-Jun-16 09:24 149 11.1
2019-Jun-16 09:19 149 11.1
2019-Jun-16 09:14 149 11.1
2019-Jun-16 09:09 149 11.1
2019-Jun-16 09:04 149 11.1
2019-Jun-16 08:59 149 11.1
2019-Jun-16 08:54 149 11.1
2019-Jun-16 08:49 149 11.1
2019-Jun-16 08:44 149 11.1
2019-Jun-16 08:39 149 11.1
2019-Jun-16 08:34 149 11.1
2019-Jun-16 08:29 149 11.1
2019-Jun-16 08:24 149 11.1
2019-Jun-16 08:19 149 11.1
2019-Jun-16 08:14 149 11.1
2019-Jun-16 08:09 149 11.1
2019-Jun-16 08:04 149 11.1
2019-Jun-16 07:59 149 11.1
2019-Jun-16 07:54 149 11.1
2019-Jun-16 07:49 149 0 gusting 1 11.7
2019-Jun-16 07:44 149 0 gusting 2 11.7
2019-Jun-16 07:39 149 1 gusting 2 11.7
2019-Jun-16 07:34 149 0 gusting 1 11.7
2019-Jun-16 07:29 149 0 gusting 1 11.7
2019-Jun-16 07:24 149 0 gusting 1 11.7
2019-Jun-16 07:19 149 0 gusting 1 11.7
2019-Jun-16 07:14 149 11.7
2019-Jun-16 07:09 149 0 gusting 1 11.7
2019-Jun-16 07:04 149 11.7
2019-Jun-16 06:59 149 11.7
2019-Jun-16 06:54 149 1 gusting 1 11.7
2019-Jun-16 06:49 149 11.7
2019-Jun-16 06:44 149 1 gusting 2 11.7
2019-Jun-16 06:39 149 1 gusting 2 11.7
2019-Jun-16 06:34 149 1 gusting 2 12.2
2019-Jun-16 06:29 149 0 gusting 2 12.2
2019-Jun-16 06:24 149 0 gusting 2 12.2
2019-Jun-16 06:19 149 12.2
2019-Jun-16 06:14 149 12.2
2019-Jun-16 06:09 149 12.2
2019-Jun-16 06:04 149 12.2
2019-Jun-16 05:59 149 12.8
2019-Jun-16 05:54 149 12.8
2019-Jun-16 05:49 149 12.8
2019-Jun-16 05:44 149 12.8
2019-Jun-16 05:39 149 0 gusting 1 12.8
2019-Jun-16 05:34 149 0 gusting 1 12.8
2019-Jun-16 05:29 149 0 gusting 1 12.8
2019-Jun-16 05:24 148 0 gusting 1 13.3
2019-Jun-16 05:19 148 13.3
2019-Jun-16 05:14 149 13.3
2019-Jun-16 05:09 148 13.3
2019-Jun-16 05:04 148 13.3
2019-Jun-16 04:59 148 0 gusting 1 13.3
2019-Jun-16 04:54 148 13.9
2019-Jun-16 04:49 148 13.9
2019-Jun-16 04:44 148 13.9
2019-Jun-16 04:39 146 13.9
2019-Jun-16 04:34 145 13.9
2019-Jun-16 04:29 144 13.9
2019-Jun-16 04:24 144 13.9
2019-Jun-16 04:19 144 0 gusting 1 14.4
2019-Jun-16 04:14 144 14.4
2019-Jun-16 04:09 155 14.4
2019-Jun-16 04:04 155 14.4
2019-Jun-16 03:59 155 14.4
2019-Jun-16 03:54 155 14.4
2019-Jun-16 03:49 155 14.4
2019-Jun-16 03:44 155 0 gusting 5 14.4
2019-Jun-16 03:39 162 15.0
2019-Jun-16 03:34 169 2 gusting 6 15.0
2019-Jun-16 03:29 159 0 gusting 4 15.0
2019-Jun-16 03:24 153 0 gusting 4 15.0
2019-Jun-16 03:19 171 15.0
2019-Jun-16 03:14 161 15.6
2019-Jun-16 03:09 161 0 gusting 3 15.6
2019-Jun-16 03:04 159 15.6
2019-Jun-16 02:59 160 0 gusting 5 15.6
2019-Jun-16 02:54 198 0 gusting 8 15.6
2019-Jun-16 02:49 157 3 gusting 8 15.6
2019-Jun-16 02:44 157 4 gusting 8 16.1
2019-Jun-16 02:39 174 1 gusting 6 16.1
2019-Jun-16 02:34 143 4 gusting 6 16.1
2019-Jun-16 02:29 157 1 gusting 8 16.1
2019-Jun-16 02:24 167 5 gusting 8 16.1
2019-Jun-16 02:19 158 6 gusting 9 16.7
2019-Jun-16 02:14 170 6 gusting 9 16.7
2019-Jun-16 02:09 147 6 gusting 10 16.7
2019-Jun-16 02:04 159 6 gusting 9 17.2
2019-Jun-16 01:59 144 6 gusting 10 17.2
2019-Jun-16 01:54 169 7 gusting 12 17.2
2019-Jun-16 01:49 155 8 gusting 12 17.2
2019-Jun-16 01:44 149 7 gusting 12 17.2
2019-Jun-16 01:39 147 8 gusting 12 17.2
2019-Jun-16 01:34 141 8 gusting 13 17.2
2019-Jun-16 01:29 128 9 gusting 13 17.2
2019-Jun-16 01:24 162 6 gusting 13 17.2
2019-Jun-16 01:19 150 9 gusting 13 17.2
2019-Jun-16 01:14 150 8 gusting 11 17.2
2019-Jun-16 01:09 140 8 gusting 13 16.7
2019-Jun-16 01:04 155 10 gusting 13 17.2
2019-Jun-16 00:59 157 6 gusting 10 17.2
2019-Jun-16 00:54 145 6 gusting 12 17.2
2019-Jun-16 00:49 167 6 gusting 12 16.7
2019-Jun-16 00:44 145 8 gusting 12 16.7
2019-Jun-16 00:39 159 8 gusting 11 17.2
2019-Jun-16 00:34 159 7 gusting 11 17.2
2019-Jun-16 00:29 159 9 gusting 13 17.2
2019-Jun-16 00:24 153 9 gusting 13 17.2
2019-Jun-16 00:19 159 6 gusting 9 17.2
2019-Jun-16 00:14 162 7 gusting 9 16.7
2019-Jun-16 00:09 153 8 gusting 9 16.7
2019-Jun-16 00:04 156 7 gusting 11 16.7
2019-Jun-15 23:59 153 8 gusting 11 17.2
2019-Jun-15 23:54 155 9 gusting 11 16.7
2019-Jun-15 23:49 159 9 gusting 11 17.2
2019-Jun-15 23:44 153 8 gusting 10 17.2
2019-Jun-15 23:39 157 7 gusting 9 17.2
2019-Jun-15 23:34 170 6 gusting 8 17.2
2019-Jun-15 23:29 155 6 gusting 10 16.7
2019-Jun-15 23:24 157 8 gusting 10 16.7
2019-Jun-15 23:19 169 7 gusting 12 16.7
2019-Jun-15 23:14 154 9 gusting 12 17.2
2019-Jun-15 23:09 154 10 gusting 15 17.2
2019-Jun-15 23:04 169 11 gusting 15 17.2
2019-Jun-15 22:59 159 10 gusting 13 16.7
2019-Jun-15 22:54 157 9 gusting 12 17.2
2019-Jun-15 22:49 159 9 gusting 13 17.2
2019-Jun-15 22:44 147 9 gusting 13 17.2
2019-Jun-15 22:39 177 9 gusting 12 17.2
2019-Jun-15 22:34 167 9 gusting 12 17.2
2019-Jun-15 22:29 162 8 gusting 12 17.2
2019-Jun-15 22:24 156 9 gusting 12 17.2
2019-Jun-15 22:19 169 10 gusting 12 17.2
2019-Jun-15 22:14 167 9 gusting 12 17.2
2019-Jun-15 22:09 158 8 gusting 11 17.2
2019-Jun-15 22:04 167 7 gusting 10 17.2
2019-Jun-15 21:59 180 7 gusting 10 17.2
2019-Jun-15 21:54 161 7 gusting 11 17.2
2019-Jun-15 21:49 168 8 gusting 11 16.7
2019-Jun-15 21:44 178 8 gusting 11 16.7
2019-Jun-15 21:39 158 8 gusting 11 16.7
2019-Jun-15 21:34 176 6 gusting 11 16.7
2019-Jun-15 21:29 163 8 gusting 11 16.7
2019-Jun-15 21:24 172 8 gusting 11 16.7
2019-Jun-15 21:19 170 8 gusting 11 16.7
2019-Jun-15 21:14 155 8 gusting 10 16.7
2019-Jun-15 21:09 164 7 gusting 11 16.7
2019-Jun-15 21:04 161 7 gusting 11 16.7
2019-Jun-15 20:59 194 6 gusting 10 16.7
2019-Jun-15 20:54 162 7 gusting 10 16.1
2019-Jun-15 20:49 174 4 gusting 9 16.1
2019-Jun-15 20:44 171 6 gusting 9 16.1
2019-Jun-15 20:39 163 7 gusting 10 16.1
2019-Jun-15 20:34 162 7 gusting 11 16.1
2019-Jun-15 20:29 161 8 gusting 11 16.1
2019-Jun-15 20:24 176 9 gusting 11 15.6
2019-Jun-15 20:19 155 7 gusting 11 16.1
2019-Jun-15 20:14 160 8 gusting 11 16.1
2019-Jun-15 20:09 166 6 gusting 11 16.1
2019-Jun-15 20:04 163 8 gusting 11 16.1
2019-Jun-15 19:59 162 7 gusting 11 16.1
2019-Jun-15 19:54 157 9 gusting 11 16.1
2019-Jun-15 19:49 153 8 gusting 11 16.1
2019-Jun-15 19:44 161 5 gusting 9 16.1
2019-Jun-15 19:39 155 6 gusting 9 16.7
2019-Jun-15 19:34 181 5 gusting 9 16.7
2019-Jun-15 19:29 152 6 gusting 9 16.1
2019-Jun-15 19:24 169 2 gusting 5 16.7
2019-Jun-15 19:19 193 2 gusting 5 16.7
2019-Jun-15 19:14 165 2 gusting 6 16.7
2019-Jun-15 19:09 180 3 gusting 6 16.7
2019-Jun-15 19:04 165 2 gusting 6 16.1
2019-Jun-15 18:59 178 2 gusting 6 16.1
2019-Jun-15 18:54 176 2 gusting 5 16.1
2019-Jun-15 18:49 195 2 gusting 5 16.7
2019-Jun-15 18:44 170 2 gusting 3 16.7
2019-Jun-15 18:39 178 1 gusting 4 16.7
2019-Jun-15 18:34 167 1 gusting 3 16.7
2019-Jun-15 18:29 171 2 gusting 5 16.1
2019-Jun-15 18:24 175 3 gusting 5 16.7
2019-Jun-15 18:19 175 2 gusting 4 16.7
2019-Jun-15 18:14 175 2 gusting 4 16.1
2019-Jun-15 18:09 177 2 gusting 6 16.1
2019-Jun-15 18:04 167 3 gusting 6 16.1
2019-Jun-15 17:59 184 1 gusting 2 16.1
2019-Jun-15 17:54 169 0 gusting 3 16.7
2019-Jun-15 17:49 165 1 gusting 3 15.6
2019-Jun-15 17:44 172 1 gusting 4 15.6
2019-Jun-15 17:39 166 2 gusting 4 15.6
2019-Jun-15 17:34 164 2 gusting 3 15.6
2019-Jun-15 17:29 162 1 gusting 3 15.0
2019-Jun-15 17:24 162 2 gusting 3 15.0
2019-Jun-15 17:19 159 0 gusting 4 15.0
2019-Jun-15 17:14 159 2 gusting 4 15.0
2019-Jun-15 17:09 167 1 gusting 3 14.4
2019-Jun-15 17:04 168 0 gusting 2 14.4
2019-Jun-15 16:59 157 0 gusting 2 14.4
2019-Jun-15 16:54 161 0 gusting 2 13.9
2019-Jun-15 16:49 167 13.9
2019-Jun-15 16:44 167 1 gusting 2 13.9
2019-Jun-15 16:39 167 0 gusting 2 13.9
2019-Jun-15 16:34 166 0 gusting 1 13.9
2019-Jun-15 16:29 168 0 gusting 1 13.9
2019-Jun-15 16:24 168 0 gusting 1 13.9
2019-Jun-15 16:19 168 0 gusting 1 13.3
2019-Jun-15 16:14 168 13.3
2019-Jun-15 16:09 168 0 gusting 1 13.3
2019-Jun-15 16:04 168 0 gusting 2 13.3
2019-Jun-15 15:59 168 0 gusting 2 13.3
2019-Jun-15 15:54 178 0 gusting 2 13.3
2019-Jun-15 15:49 130 0 gusting 2 13.3
2019-Jun-15 15:44 130 0 gusting 2 12.8
2019-Jun-15 15:39 129 12.8
2019-Jun-15 15:34 129 0 gusting 1 12.2
2019-Jun-15 15:29 128 0 gusting 1 12.2
2019-Jun-15 15:24 092 11.7
2019-Jun-15 15:19 092 11.7
2019-Jun-15 15:14 092 0 gusting 1 11.7
2019-Jun-15 15:09 092 0 gusting 1 11.7
2019-Jun-15 15:04 346 11.1
2019-Jun-15 14:59 346 11.1
2019-Jun-15 14:54 346 11.1
2019-Jun-15 14:49 346 10.6
2019-Jun-15 14:44 346 10.6
2019-Jun-15 14:39 346 10.6
2019-Jun-15 14:34 345 10.6
2019-Jun-15 14:29 344 10.0
2019-Jun-15 14:24 344 10.0
2019-Jun-15 14:19 344 10.0
2019-Jun-15 14:14 344 9.4
2019-Jun-15 14:09 344 9.4
2019-Jun-15 14:04 344 9.4
2019-Jun-15 13:59 344 9.4
2019-Jun-15 13:54 344 9.4
2019-Jun-15 13:49 344 9.4
2019-Jun-15 13:44 344 9.4
2019-Jun-15 13:39 344 8.9
2019-Jun-15 13:34 344 8.9
2019-Jun-15 13:29 344 8.9
2019-Jun-15 13:24 344 8.9
2019-Jun-15 13:19 344 8.9
2019-Jun-15 13:14 344 0 gusting 1 8.9
2019-Jun-15 13:09 344 0 gusting 1 8.9
2019-Jun-15 13:04 344 8.9
2019-Jun-15 12:59 344 8.9
2019-Jun-15 12:54 344 8.9
2019-Jun-15 12:49 344 0 gusting 1 8.9
2019-Jun-15 12:44 344 0 gusting 1 8.9
2019-Jun-15 12:39 344 0 gusting 1 8.9
2019-Jun-15 12:34 349 0 gusting 2 8.9
2019-Jun-15 12:29 349 1 gusting 2 8.9
2019-Jun-15 12:24 349 0 gusting 2 8.9
2019-Jun-15 12:19 349 0 gusting 1 8.9
2019-Jun-15 12:14 349 0 gusting 1 8.9
2019-Jun-15 12:09 349 1 gusting 1 8.9
2019-Jun-15 12:04 349 1 gusting 2 8.9
2019-Jun-15 11:59 349 1 gusting 2 8.9
2019-Jun-15 11:54 349 1 gusting 1 8.9
2019-Jun-15 11:49 349 0 gusting 1 8.9
2019-Jun-15 11:44 349 0 gusting 1 8.9
2019-Jun-15 11:39 349 1 gusting 1 8.9
2019-Jun-15 11:34 349 1 gusting 1 8.9
2019-Jun-15 11:29 349 0 gusting 1 8.9
2019-Jun-15 11:24 349 0 gusting 1 9.4
2019-Jun-15 11:19 349 0 gusting 1 9.4
2019-Jun-15 11:14 349 1 gusting 1 9.4
2019-Jun-15 11:09 349 0 gusting 1 9.4
2019-Jun-15 11:04 349 1 gusting 1 9.4
2019-Jun-15 10:59 349 0 gusting 1 9.4
2019-Jun-15 10:54 349 0 gusting 1 9.4
2019-Jun-15 10:49 349 0 gusting 1 9.4
2019-Jun-15 10:44 349 0 gusting 1 9.4
2019-Jun-15 10:39 349 0 gusting 1 9.4
2019-Jun-15 10:34 349 9.4
2019-Jun-15 10:29 349 9.4
2019-Jun-15 10:24 349 9.4
2019-Jun-15 10:19 349 10.0
2019-Jun-15 10:14 349 10.0
2019-Jun-15 10:09 349 10.0
2019-Jun-15 10:04 349 10.0
2019-Jun-15 09:59 349 10.0
2019-Jun-15 09:54 349 10.0
2019-Jun-15 09:49 349 10.0
2019-Jun-15 09:44 349 0 gusting 0 10.0
2019-Jun-15 09:39 349 10.0
2019-Jun-15 09:34 349 10.0
2019-Jun-15 09:29 349 10.0
2019-Jun-15 09:24 349 10.0
2019-Jun-15 09:19 349 10.0
2019-Jun-15 09:14 346 0 gusting 2 10.0
2019-Jun-15 09:09 158 0 gusting 1 10.6
2019-Jun-15 09:04 158 10.6
2019-Jun-15 08:59 158 10.6
2019-Jun-15 08:54 158 10.6
2019-Jun-15 08:49 158 10.6
2019-Jun-15 08:44 158 10.6
2019-Jun-15 08:39 158 10.6
2019-Jun-15 08:34 158 11.1
2019-Jun-15 08:29 158 11.1
2019-Jun-15 08:24 158 11.1
2019-Jun-15 08:19 158 11.1
2019-Jun-15 08:14 153 11.1
2019-Jun-15 08:09 153 11.1
2019-Jun-15 08:04 153 11.1
2019-Jun-15 07:59 153 11.7
2019-Jun-15 07:54 151 3 gusting 8 11.7
2019-Jun-15 07:49 166 6 gusting 8 11.7
2019-Jun-15 07:44 159 6 gusting 7 11.7
2019-Jun-15 07:39 163 3 gusting 5 11.7
2019-Jun-15 07:34 166 2 gusting 5 11.7
2019-Jun-15 07:29 164 3 gusting 8 11.7
2019-Jun-15 07:24 148 3 gusting 8 12.2
2019-Jun-15 07:19 142 5 gusting 8 12.2
2019-Jun-15 07:14 148 6 gusting 9 12.2
2019-Jun-15 07:09 155 7 gusting 9 12.2
2019-Jun-15 07:04 166 6 gusting 7 12.8
2019-Jun-15 06:59 165 3 gusting 6 12.8
2019-Jun-15 06:54 178 2 gusting 6 12.8
2019-Jun-15 06:49 161 2 gusting 5 12.8
2019-Jun-15 06:44 177 0 gusting 3 12.8
2019-Jun-15 06:39 128 1 gusting 3 12.8
2019-Jun-15 06:34 176 13.3
2019-Jun-15 06:29 169 13.3
2019-Jun-15 06:24 169 1 gusting 3 13.3
2019-Jun-15 06:19 145 13.3
2019-Jun-15 06:14 145 13.3
2019-Jun-15 06:09 145 0 gusting 2 13.9
2019-Jun-15 06:04 144 13.9
2019-Jun-15 05:59 144 0 gusting 3 13.9
2019-Jun-15 05:54 136 0 gusting 5 13.9
2019-Jun-15 05:49 152 2 gusting 5 13.9
2019-Jun-15 05:44 131 2 gusting 5 13.9
2019-Jun-15 05:39 151 2 gusting 6 13.9
2019-Jun-15 05:34 136 3 gusting 6 13.9
2019-Jun-15 05:29 139 3 gusting 6 13.9
2019-Jun-15 05:24 148 2 gusting 6 13.9
2019-Jun-15 05:19 116 2 gusting 6 13.9
2019-Jun-15 05:14 139 4 gusting 6 13.9
2019-Jun-15 05:09 155 3 gusting 6 13.9
2019-Jun-15 05:04 150 3 gusting 6 13.9
2019-Jun-15 04:59 141 4 gusting 6 13.9
2019-Jun-15 04:54 148 4 gusting 7 13.9
2019-Jun-15 04:49 132 3 gusting 7 13.9
2019-Jun-15 04:44 142 5 gusting 7 13.9
2019-Jun-15 04:39 140 4 gusting 9 13.9
2019-Jun-15 04:34 161 4 gusting 9 13.9
2019-Jun-15 04:29 149 5 gusting 8 14.4
2019-Jun-15 04:24 140 5 gusting 8 14.4
2019-Jun-15 04:19 123 5 gusting 9 14.4
2019-Jun-15 04:14 116 5 gusting 9 14.4
2019-Jun-15 04:09 136 6 gusting 8 14.4
2019-Jun-15 04:04 169 5 gusting 7 14.4